Timeline UpdatesTrip UpdatesNews PostsPvt Posts♥♥Travel TipsAdmin PostsConv PostsFollowed PostsChat RequestsBlog PostsPNR Posts

Disclaimer
Search
 
 
Mon Nov 24, 2014 21:54:22 ISTHomeTrainsΣChainsAtlasPNRForumGalleryNewsFAQTripsMembersLoginFeedback
No Recent News for this Train
Other Trains in the News **new
Latest...
.
Mon Sep 08, 2014 (11:27PM)
⇐ Return Journey: Train# 17480

17479/Puri-Tirupati Express

Time-Table HAS CHANGED.
Sep 08 2014 (11:27PM)
Change Departure Station:
Change Arrival Station:
Post a Train Travel TipPost a Train Travel Tip **new
Post a Comment/Question/Picture/VideoPost a Comment/Question/Picture/Video
Inaugural Run
Wed Jan 01, 1992
Pantry/Catering
✕ NO Pantry Car
✕ NO Catering
Loco/Rake Reversals
KUR/Khurda Road Junction (7); VSKP/Visakhapatnam Junction (8);
RSA - Rake Sharing
Rake/Coach Composition
Entry# 194081 Author: νιηαy దత్త 1:; SLRD(For Disabled + Ladies Only) - UR - UR - S1 - S2 - S3 - S4 - S5 - B1 - UR - UR - UR - SLR(Ladies Only)
Loco
Official Loco:- PURI/KUR - VSKP:- WAM-4 VSKP - RJY:- WAM-4/WAP-1 RJY - BZA:-...
Read more...
WDM-2A/WDM-3A BZA - TPTY:- WAM-4/WAP-1
News    PNR    Forum    Time-Table    Availability    Fare Chart    Map    Arr/Dep History    Trips    Gallery    ΣChains    X/O    Timeline    
Travel Time: 2h 35m    7 halts    Distance: 115 km    Avg Speed: 44 km/hr
Type: Mail/Express
Zone: SCR/South Central
Departs @ 12:25 (Avg 1m late)
Platform# 9
SM WTF 
Puri/PURI 
Arrives @ 15:00 (Avg 13m late)
Platform# ???
SM WTF 
Balugaon/BALU 

7 halts. 22 intermediate Stations between Puri and Balugaon

Show ALL intermediate Stations  Show Old Time-Table

#TrkCodeStation NameX/OArrivesAvgDepartsAvgHaltPFDay#KmSpeedElevZoneAddress
1%==%PURIPuri (5)»  -12:25+1910.04912mECoRPuri, Odisha
2%==%SILSakhi Gopal (3)  12:45+1012:46+101m--116.44210mECoRPuri, Odisha
3/==/KURKhurda Road Junction (7)X13:25+613:50+825m--143.97925mECoRKhordha, Odisha
4/==/NKPNirakarpurX  14:11 14:10+1314:12+131 2m--170.37121mECoRNirakarpur, Odisha
5/==/BSDPBhusandpurX  14:20 14:18+1314:21 14:20+131 2m--177.47420mECoRBhushandapur, Odisha
6/==/KAPGKalupara Ghat  14:30 14:28+1314:31 14:30+131 2m--187.36710mECoRChandeswar, Odisha
7/==/KUUKuhuri  14:38 14:36+1414:39 14:38+131 2m--194.06826mECoRKhordha, Odisha
8/==/GNGDGangadharpurX  14:47 14:45+1314:48 14:47+141 2m--1102.06022mECoRKhordha, Odisha
9/==/BALUBalugaon (3)•X  15:01 15:00+1315:02+131 2m--1115.04811mECoR752030, Odisha
10/==/CLKAChilka  15:09 15:11+1215:10 15:13+121 2m--1122.27525mECoRBarkul, Odisha
11/==/KITKhallikot (3)X  15:18 15:21+1215:19 15:23+121 2m--1132.27513mECoRKhallikot, Odisha
12/==/RBARambhaX  15:29 15:32+1115:30 15:34+121 2m--1143.48614mECoRGanjam District, Odisha
13/==/GAMGanjamX  15:43 15:46+1215:44 15:48+121 2m--1160.7678mECoRGanjam, Odisha
14/==/CAPChatrapur  15:54 15:56+1415:55 15:58+141 2m--1169.65836mECoRChatrapur, Odisha
15/==/BAMBrahmapur (3)X  16:15 16:20+916:20 16:25+115m31191.07327mECoRBerhampur, Odisha
16/==/IPMIchchapuram  16:42 16:45+416:43 16:47+41 2m--1215.58321mECoRIchchapuram, Andhra Pradesh
17/==/SPTSompeta (4)X  17:01 17:00+417:02+61 2m--1233.57148mECoRKanchili, Andhra Pradesh
18/==/MMSMandasa Road  17:15 17:18+1317:16 17:20+181 2m11252.31238mECoRSrikakulam, Andhra Pradesh
19/==/PSAPalasa (3)X  18:25-118:30+05m--1265.47431mECoRKasibugga, Andhra Pradesh
20/==/PUNPundi  18:41 18:40+718:42+71 2m--1277.66838mECoRSrikakulam, Andhra Pradesh
21/==/NWPNaupada Junction  18:55 18:54+718:56+71 2m--1291.18313mECoRNuapada . ph.no. 08945-249728, Andhra Pradesh
22/==/KBMKotabommali  19:07 19:06+719:08+71 2m--1304.98213mECoRSrikakulam, Andhra Pradesh
23/==/TIUTilaru (4)  19:19 19:18+819:20+81 2m--1318.65950mECoRSrikakulam District, Andhra Pradesh
24/==/CHESrikakulam Road (4)X  19:40+519:45+55m--1338.44834mECoRsrikakulam road ph .no. 08942-287222, Andhra Pradesh
25/==/DUSIDusi  19:54 19:53+419:55+41 2m--1344.86628mECoRSrikakulam, Andhra Pradesh
26/==/PDUPonduruX  20:04 20:03+420:05+61 2m--1353.77539mECoRSrikakulam, Andhra Pradesh
27/==/SGDMSigadam  20:14 20:13+720:15+111 2m--1363.78067mECoRSrikakulam, Andhra Pradesh
28/==/CPPChipurupalleX  20:26 20:25+1120:27+151 2m--1377.04999mECoRCheepurupalli, Andhra Pradesh
29/==/GVIGarividi  20:36 20:35+1520:37+181 2m--1383.62892mECoRGarividi Railway Station Rd, Andhra Pradesh
30/==/VZMVizianagaram Junction (5)  21:30+021:35+35m--1407.97063mECoRVizianagaram, Andhra Pradesh
31/==/KTVKottavalasa Junction (5)O  22:06 22:05+722:07+71 2m--1442.96858mECoRVizianagaram District, Andhra Pradesh
32/==/SCMSimhachalam (2)XO  22:24 22:23-22:25-1 2m--1460.9927mECoRVisakhapatnam, Andhra Pradesh
33/==/VSKPVisakhapatnam Junction (8)X23:20-123:40+320m21469.03511mECoRVishakhapatnam 530001, Andhra Pradesh
34/==/DVDDuvvada (4)X  00:09 00:08+700:10+81 2m12485.45346mECoRVishakhapatnam District, Andhra Pradesh
35/==/AKPAnakapalle (3)  00:28+1600:29+181m22501.45930mSCRAnakapalle ph.no . 08924-221698, Andhra Pradesh
36/==/YLMElamanchili (2)  00:53+2100:54+221m--2525.110423mSCRVisakhapatnam District, Andhra Pradesh
37/==/TUNITuni (2)  01:17+3001:18+311m12565.17124mSCRTuni ph.no. 08854-252172, Andhra Pradesh
38/==/ANVAnnavaram (3)X  01:32+3101:33+321m12581.88327mSCREast Godavari District, Andhra Pradesh
39/==/PAPPithapuram (2)X  01:51+3501:52+351m--2606.65622mSCREast Godavari District, Andhra Pradesh
40/==/SLOSamalkot Junction (3)X  02:05+3202:06+331m32618.78418mSCRSamalkot, Andhra Pradesh
41/==/APTAnaparti (3)X  02:25+3702:26+371m--2645.24521mSCREast Godavari District, Andhra Pradesh
42/==/DWPDwarapudi (3)X  02:31+3902:32+401m--2648.93120mSCREast Godavari District, Andhra Pradesh
43/==/RJYRajahmundry (3)X03:10+2603:25+2815m12668.83623mSCRRajahmundry ph.no. 0883-2420541, Andhra Pradesh
44/==/KVRKovvur (3)  03:38+3603:39+371m32676.74325mSCRWest Godavari, Andhra Pradesh
45/==/NDDNidadavolu Junction (3)  03:59+3304:00+341m22691.05420mSCRNidadavolu jtn ph.no. 08813-210325, Andhra Pradesh
46|--|TNKUTanuku (2)  04:19+3904:20+411m--2708.14512mSCR131, Andhra Pradesh
47|--|ALAttili (1)  04:34+4004:35+411m12718.74614mSCRWest Godavari, Andhra Pradesh
48|--|BVRTBhimavaram Town (2)X  05:01+3705:02+391m12738.5488mSCRBhimavaram, Andhra Pradesh
49|--|AKVDAkividu (3)X  05:24+4905:25+521m--2756.2485mSCRCoast Andhra, Andhra Pradesh
50|--|KKLRKaikaluru (2)X  05:46+4905:47+541m--2772.8348mSCRKaikalur, Andhra Pradesh
51|--|GDVGudivada Junction (3)X  06:39+5006:40+511m--2802.13211mSCRKrishna District, Andhra Pradesh
52|--|BZAVijayawada Junction (10)X  08:00+3708:20+3320m42845.35624mSCRVijayawada 520001, Andhra Pradesh
53/==/DIGDuggirala (3)  08:43+4208:44+421m--2866.96516mSCRDuggirala, Andhra Pradesh
54/==/TELTenali Junction (5)  08:53+4208:54+441m32876.66616mSCRTel: 08644-227834, Andhra Pradesh
55/==/NDONidubrolu (3)X  09:14+5309:15+591m--2898.6659mSCRNidubrolu, Andhra Pradesh
56/==/BPPBapatla (3)  09:34+5509:35+561m22919.27510mSCRBapatla, Andhra Pradesh
57/==/CLXChirala (4)  09:47+5609:48+581m--2934.2528mSCRChirala, Andhra Pradesh
58/==/VTMVetapalem (3)  09:57+1:0109:58+1:031m--2942.1688mSCRVetapalem, Andhra Pradesh
59/==/CJMChinnaganjam (3)X  10:09+1:0310:10+1:051m--2954.5659mSCRChinna Ganjam, Andhra Pradesh
60/==/ANBAmmanabrolu (3)X  10:23+1:0810:24+1:091m--2968.74516mSCRAmmanabrolu, Andhra Pradesh
61/==/OGLOngole (3)XO  10:44+5810:45+1:011m32983.66212mSCROngole, Andhra Pradesh
62/==/TNRTanguturu (3)  11:03+1:0711:04+1:071m--21002.27210mSCRTanguturu, Andhra Pradesh
63/==/SKMSingarayakonda (2)X  11:12+1:0711:13+1:081m221011.86326mSCRSingarayakonda, Andhra Pradesh
64/==/KVZKavali (4)XO  11:49+2:3311:50+2:331m221049.67021mSCRKavali, Andhra Pradesh
65/==/BTTRBitragunta (2)  12:04-12:05-1m221066.07615mSCRBitragunta, Andhra Pradesh
66/==/NLRNellore (4)X  12:32+2312:33+231m221100.32721mSCRNellore, Andhra Pradesh
67/==/GDRGudur Junction (3)X  14:00+3614:05+385m121138.86819mSCRGudur, Andhra Pradesh
68/==/VDDVendodu (2)X  14:22+4614:23+471m--21158.07655mSCRNellore, Andhra Pradesh
69/==/VKIVenkatagiri (3)X  14:36+4914:37+501m221174.66477mSCRNellore District, Andhra Pradesh
70/==/KHTSri Kalahasti (2)  15:01 15:00+4815:02+481 2m121199.03068mSCRChittoor District, Andhra Pradesh
71/==/RURenigunta Junction (5)  15:48+4815:50+532m--21222.213113mSCRChittoor District, Andhra Pradesh
72/==/TPTYTirupati Main (5)  16:35+7-421232.1-150mSCRChittoor Distt, Andhra Pradesh
Scroll to Top
Scroll to Bottom